TimeEST,TemperatureF,Dew PointF,Humidity,Sea Level PressureIn,VisibilityMPH,Wind Direction,Wind SpeedMPH,Gust SpeedMPH,PrecipitationIn,Events,Conditions,WindDirDegrees,DateUTC
12:15 AM,40.5,27.5,60,30.22,10.0,North,12.7,-,N/A,,Overcast,360,2012-11-27 05:15:00
12:35 AM,40.5,27.9,61,30.23,10.0,North,8.1,-,N/A,,Overcast,350,2012-11-27 05:35:00
12:55 AM,40.1,28.4,63,30.23,10.0,NNW,5.8,-,N/A,,Overcast,340,2012-11-27 05:55:00
1:15 AM,39.6,28.8,65,30.23,10.0,North,10.4,-,N/A,,Overcast,350,2012-11-27 06:15:00
1:35 AM,39.2,29.1,67,30.23,10.0,North,9.2,-,N/A,,Overcast,350,2012-11-27 06:35:00
1:55 AM,38.8,29.5,69,30.24,10.0,North,8.1,-,N/A,Rain,Light Rain,350,2012-11-27 06:55:00
2:15 AM,37.9,30.6,75,30.24,7.0,North,5.8,-,N/A,Rain,Light Rain,350,2012-11-27 07:15:00
2:35 AM,36.9,31.3,80,30.24,7.0,North,5.8,-,N/A,Rain,Light Rain,350,2012-11-27 07:35:00
2:55 AM,36.3,31.5,83,30.24,7.0,North,6.9,-,N/A,Rain,Light Rain,360,2012-11-27 07:55:00
3:15 AM,35.6,31.1,84,30.23,5.0,NNW,6.9,-,N/A,Snow,Light Snow,340,2012-11-27 08:15:00
3:35 AM,34.5,30.9,87,30.23,3.0,North,5.8,-,N/A,Snow,Light Snow,350,2012-11-27 08:35:00
3:55 AM,33.8,30.7,89,30.23,5.0,NNW,8.1,-,N/A,Snow,Light Snow,340,2012-11-27 08:55:00
4:15 AM,33.8,30.4,87,30.23,5.0,NNW,6.9,-,N/A,Snow,Light Snow,340,2012-11-27 09:15:00
4:35 AM,34.0,30.2,86,30.23,7.0,North,9.2,-,N/A,,Overcast,350,2012-11-27 09:35:00
4:55 AM,34.3,30.2,85,30.23,7.0,NNW,8.1,-,N/A,,Overcast,340,2012-11-27 09:55:00
5:15 AM,34.7,29.8,82,30.23,10.0,North,6.9,-,N/A,,Overcast,350,2012-11-27 10:15:00
5:35 AM,34.7,29.7,82,30.23,10.0,North,8.1,-,N/A,,Overcast,360,2012-11-27 10:35:00
5:55 AM,34.7,29.5,81,30.23,10.0,North,6.9,-,N/A,,Overcast,350,2012-11-27 10:55:00
6:15 AM,34.7,29.3,81,30.24,10.0,NNW,9.2,-,N/A,,Overcast,340,2012-11-27 11:15:00
6:35 AM,34.5,28.9,80,30.24,10.0,North,10.4,-,N/A,,Overcast,360,2012-11-27 11:35:00
6:55 AM,34.3,28.6,79,30.25,10.0,North,9.2,-,N/A,,Overcast,350,2012-11-27 11:55:00
7:15 AM,34.3,28.4,79,30.27,10.0,North,11.5,-,N/A,,Overcast,350,2012-11-27 12:15:00
7:35 AM,34.0,27.7,78,30.28,10.0,North,9.2,-,N/A,,Overcast,350,2012-11-27 12:35:00
7:55 AM,33.8,27.3,77,30.29,10.0,NNW,9.2,-,N/A,,Overcast,340,2012-11-27 12:55:00
8:15 AM,33.8,26.8,75,30.28,10.0,North,10.4,-,N/A,,Overcast,350,2012-11-27 13:15:00
8:35 AM,33.8,26.6,75,30.29,10.0,North,10.4,-,N/A,,Overcast,360,2012-11-27 13:35:00
8:55 AM,33.8,26.2,74,30.31,10.0,North,9.2,-,N/A,,Overcast,350,2012-11-27 13:55:00
9:15 AM,34.2,25.9,72,30.31,10.0,North,10.4,-,N/A,,Overcast,360,2012-11-27 14:15:00
9:35 AM,34.5,25.9,71,30.31,10.0,North,9.2,-,N/A,,Overcast,360,2012-11-27 14:35:00
9:55 AM,35.1,25.7,69,30.32,10.0,North,12.7,-,N/A,,Overcast,360,2012-11-27 14:55:00
10:15 AM,35.2,24.6,65,30.31,10.0,North,12.7,-,N/A,,Overcast,360,2012-11-27 15:15:00
10:35 AM,36.3,24.6,63,30.32,10.0,North,11.5,-,N/A,,Scattered Clouds,10,2012-11-27 15:35:00
10:55 AM,37.4,24.3,59,30.33,10.0,North,9.2,-,N/A,,Clear,360,2012-11-27 15:55:00
11:15 AM,38.7,24.3,56,30.32,10.0,North,10.4,-,N/A,,Clear,350,2012-11-27 16:15:00
11:35 AM,39.2,24.1,55,30.32,10.0,NNE,9.2,-,N/A,,Clear,20,2012-11-27 16:35:00
11:55 AM,39.7,23.9,53,30.31,10.0,North,9.2,-,N/A,,Clear,360,2012-11-27 16:55:00
12:15 PM,39.4,23.5,53,30.31,10.0,Calm,Calm,-,N/A,,Scattered Clouds,0,2012-11-27 17:15:00
12:35 PM,39.7,22.8,51,30.31,10.0,Calm,Calm,-,N/A,,Scattered Clouds,0,2012-11-27 17:35:00
12:55 PM,40.1,22.8,50,30.30,10.0,NNW,4.6,-,N/A,,Scattered Clouds,340,2012-11-27 17:55:00
1:15 PM,40.5,23.2,50,30.30,10.0,North,3.5,-,N/A,,Scattered Clouds,350,2012-11-27 18:15:00
1:35 PM,41.2,22.8,48,30.30,10.0,NNW,5.8,-,N/A,,Scattered Clouds,330,2012-11-27 18:35:00
1:55 PM,40.1,22.3,49,30.28,10.0,NW,5.8,-,N/A,,Scattered Clouds,320,2012-11-27 18:55:00
2:15 PM,40.8,21.9,47,30.28,10.0,North,4.6,-,N/A,,Scattered Clouds,350,2012-11-27 19:15:00
2:35 PM,40.5,22.1,48,30.27,10.0,NNW,6.9,-,N/A,,Mostly Cloudy,330,2012-11-27 19:35:00
2:55 PM,41.7,21.7,45,30.26,10.0,NNE,5.8,-,N/A,,Overcast,30,2012-11-27 19:55:00
3:15 PM,41.4,21.2,45,30.26,10.0,Calm,Calm,-,N/A,,Mostly Cloudy,0,2012-11-27 20:15:00
3:35 PM,41.0,21.4,46,30.26,10.0,Calm,Calm,-,N/A,,Overcast,0,2012-11-27 20:35:00
3:55 PM,40.6,20.8,45,30.26,10.0,NW,4.6,-,N/A,,Scattered Clouds,310,2012-11-27 20:55:00
4:15 PM,39.9,20.8,47,30.26,10.0,West,4.6,-,N/A,,Clear,280,2012-11-27 21:15:00
4:35 PM,39.0,21.0,49,30.27,10.0,NW,3.5,-,N/A,,Clear,310,2012-11-27 21:35:00
4:55 PM,38.3,20.5,49,30.27,10.0,NW,4.6,-,N/A,,Clear,320,2012-11-27 21:55:00
5:15 PM,36.9,20.3,51,30.26,10.0,NW,5.8,-,N/A,,Clear,320,2012-11-27 22:15:00
5:35 PM,36.0,20.3,53,30.28,10.0,WNW,8.1,-,N/A,,Clear,300,2012-11-27 22:35:00
5:55 PM,35.8,20.1,53,30.28,10.0,WNW,4.6,-,N/A,,Clear,300,2012-11-27 22:55:00
6:15 PM,34.9,20.1,55,30.29,10.0,WNW,5.8,-,N/A,,Clear,300,2012-11-27 23:15:00
6:55 PM,33.6,20.5,59,30.30,10.0,NW,4.6,-,N/A,,Scattered Clouds,320,2012-11-27 23:55:00
7:15 PM,33.3,20.3,59,30.29,10.0,Calm,Calm,-,N/A,,Clear,0,2012-11-28 00:15:00
7:35 PM,33.4,20.3,59,30.30,10.0,NW,3.5,-,N/A,,Clear,320,2012-11-28 00:35:00
7:55 PM,33.4,20.3,59,30.31,10.0,NNW,3.5,-,N/A,,Clear,330,2012-11-28 00:55:00
8:15 PM,33.1,20.3,59,30.31,10.0,WNW,3.5,-,N/A,,Clear,300,2012-11-28 01:15:00
8:35 PM,32.9,20.5,60,30.31,10.0,NW,4.6,-,N/A,,Clear,310,2012-11-28 01:35:00
8:55 PM,32.2,20.3,62,30.31,10.0,NNW,4.6,-,N/A,,Clear,330,2012-11-28 01:55:00
9:15 PM,31.8,20.3,62,30.30,10.0,Calm,Calm,-,N/A,,Clear,0,2012-11-28 02:15:00
9:35 PM,31.5,19.9,62,30.31,10.0,NW,3.5,-,N/A,,Clear,310,2012-11-28 02:35:00
9:55 PM,30.9,19.6,63,30.30,10.0,Calm,Calm,-,N/A,,Clear,0,2012-11-28 02:55:00
10:15 PM,29.8,19.2,65,30.31,10.0,Calm,Calm,-,N/A,,Clear,0,2012-11-28 03:15:00
10:35 PM,28.4,19.2,69,30.31,10.0,Calm,Calm,-,N/A,,Clear,0,2012-11-28 03:35:00
10:55 PM,27.9,19.2,70,30.31,10.0,Calm,Calm,-,N/A,,Clear,0,2012-11-28 03:55:00
11:15 PM,27.5,19.4,72,30.31,10.0,SW,3.5,-,N/A,,Clear,230,2012-11-28 04:15:00
11:35 PM,26.6,19.0,73,30.30,10.0,Calm,Calm,-,N/A,,Clear,0,2012-11-28 04:35:00
11:55 PM,24.8,18.7,78,30.30,10.0,Calm,Calm,-,N/A,,Clear,0,2012-11-28 04:55:00